This demonstration page uses our WeatherBlox Daily Observations layout. Learn more.

Hourly Observations for February 14, 2018

Temp ( °F °C ) Dew Point ( °F °C ) Humidity (%) Winds ( mph kmh ) Pressure ( in mb ) Visibility ( mi km ) Precip ( " mm )
12:15 am 00:15 Clear 24 -4.4 21 -6 89 89 Calm 30.21 1023 10 16.0934 0 0
12:35 am 00:35 Clear 23 -5 20 -6.4 90 90 W 7 11 30.21 1023 10 16.0934 0 0
12:55 am 00:55 Clear 24 -4.3 22 -5.7 90 90 W 3 6 30.21 1023 10 16.0934 0 0
1:15 am 01:15 Clear 25 -3.9 22 -5.5 89 89 W 5 7 30.21 1023 10 16.0934 0 0
1:35 am 01:35 Clear 24 -4.2 22 -5.7 89 89 W 3 6 30.21 1023 10 16.0934 0 0
1:55 am 01:55 Clear 24 -4.7 21 -5.9 91 91 W 5 7 30.18 1022 10 16.0934 0 0
2:15 am 02:15 Clear 24 -4.5 22 -5.8 91 91 W 5 7 30.18 1022 10 16.0934 0 0
2:35 am 02:35 Clear 25 -4 22 -5.8 87 87 Calm 30.18 1022 10 16.0934 0 0
2:55 am 02:55 Clear 22 -5.5 20 -6.8 91 91 Calm 30.15 1021 10 16.0934 0 0
3:15 am 03:15 Clear 24 -4.2 22 -5.8 89 89 SSW 6 9 30.15 1021 10 16.0934 0 0
3:35 am 03:35 Clear 26 -3.2 22 -5.5 84 84 SSW 6 9 30.12 1020 10 16.0934 0 0
3:55 am 03:55 Clear 26 -3.1 22 -5.3 85 85 Calm 30.12 1020 10 16.0934 0 0
4:15 am 04:15 Clear 28 -2.4 23 -5 83 83 SW 5 7 30.12 1020 10 16.0934 0 0
4:35 am 04:35 Clear 28 -2.2 23 -4.9 82 82 SW 5 7 30.09 1019 10 16.0934 0 0
4:55 am 04:55 Clear 25 -3.7 22 -5.8 86 86 W 5 7 30.09 1019 10 16.0934 0 0
5:15 am 05:15 Clear 27 -2.7 24 -4.7 86 86 W 3 6 30.09 1019 10 16.0934 0 0
5:35 am 05:35 Clear 28 -2.1 24 -4.2 86 86 WSW 6 9 30.09 1019 10 16.0934 0 0
5:55 am 05:55 Clear 28 -2 24 -4.4 84 84 WNW 6 9 30.09 1019 10 16.0934 0 0
6:15 am 06:15 Clear 28 -2.4 24 -4.6 85 85 W 3 6 30.09 1019 10 16.0934 0 0
6:35 am 06:35 Clear 28 -2.2 24 -4.5 84 84 WSW 3 6 30.09 1019 10 16.0934 0 0
6:55 am 06:55 Clear 28 -2.5 24 -4.6 86 86 WNW 6 9 30.09 1019 10 16.0934 0 0
7:15 am 07:15 Clear 27 -2.8 24 -4.7 87 87 WNW 6 9 30.09 1019 10 16.0934 0 0
7:35 am 07:35 Sunny 27 -2.7 24 -4.6 87 87 NW 8 13 30.09 1019 10 16.0934 0 0
7:55 am 07:55 Sunny 27 -2.6 24 -4.5 87 87 WNW 5 7 30.09 1019 10 16.0934 0 0
8:15 am 08:15 Sunny 28 -2.1 25 -4 87 87 W 3 6 30.09 1019 10 16.0934 0 0
8:35 am 08:35 Sunny 29 -1.7 25 -3.8 86 86 Calm 30.09 1019 10 16.0934 0 0
8:55 am 08:55 Sunny 30 -1 27 -2.8 88 88 W 5 7 30.09 1019 10 16.0934 0 0
9:15 am 09:15 Sunny 32 -0.1 28 -2.5 84 84 WNW 3 6 30.06 1018 10 16.0934 0 0
9:35 am 09:35 Sunny 32 0.1 28 -2.3 84 84 W 5 7 30.06 1018 10 16.0934 0 0
9:55 am 09:55 Sunny 35 1.5 29 -1.5 81 81 W 5 7 30.06 1018 10 16.0934 0 0
10:10 am 10:10 Sunny 36 2 30 -0.9 81 81 W 5 7 30.06 1018 10 16.0934 0 0
10:35 am 10:35 Sunny 39 3.7 31 -0.4 75 75 W 6 9 30 1016 10 16.0934 0 0
10:55 am 10:55 Sunny 41 5 32 -0.1 70 70 W 3 6 30 1016 10 16.0934 0 0
11:15 am 11:15 Sunny 42 5.6 33 0.5 70 70 Calm 29.97 1015 10 16.0934 0 0
11:35 am 11:35 Sunny 43 6.1 33 0.7 69 69 Calm 29.97 1015 10 16.0934 0 0
11:55 am 11:55 Sunny 44 6.5 34 1.1 69 69 Calm 29.94 1014 10 16.0934 0 0
12:15 pm 12:15 Sunny 44 6.8 34 1.2 68 68 Calm 29.94 1014 10 16.0934 0 0
12:35 pm 12:35 Sunny 45 7.3 34 1.2 66 66 WSW 5 7 29.94 1014 10 16.0934 0 0
12:55 pm 12:55 Sunny 45 7.2 35 1.6 68 68 Calm 29.91 1013 10 16.0934 0 0
1:15 pm 13:15 Sunny 45 7.2 34 1.3 66 66 SW 5 7 29.91 1013 10 16.0934 0 0
1:35 pm 13:35 Sunny 42 5.6 34 1.1 73 73 SW 5 7 29.91 1013 10 16.0934 0 0
1:55 pm 13:55 Sunny 42 5.4 35 1.4 76 76 SSW 3 6 29.88 1012 10 16.0934 0 0
2:15 pm 14:15 Sunny 42 5.8 35 1.7 75 75 SSW 7 11 29.85 1011 10 16.0934 0 0
2:35 pm 14:35 Sunny 42 5.7 35 1.6 75 75 SW 3 6 29.85 1011 10 16.0934 0 0
2:55 pm 14:55 Sunny 41 4.9 34 1.3 78 78 SW 10 17 29.85 1011 10 16.0934 0 0
3:15 pm 15:15 Sunny 41 4.8 34 1.2 78 78 SW 10 17 29.85 1011 10 16.0934 0 0
3:35 pm 15:35 Sunny 41 4.9 34 1.2 77 77 SW 7 11 29.85 1011 10 16.0934 0 0
3:55 pm 15:55 Sunny 41 5.2 36 2 80 80 SSW 7 11 29.83 1010 10 16.0934 0 0
4:15 pm 16:15 Sunny 41 5.1 36 2 81 81 SW 8 13 29.85 1011 10 16.0934 0 0
4:35 pm 16:35 Sunny 41 4.8 35 1.8 81 81 SW 8 13 29.83 1010 10 16.0934 0 0
4:55 pm 16:55 Sunny 40 4.5 35 1.8 83 83 SW 6 9 29.83 1010 10 16.0934 0 0
5:15 pm 17:15 Sunny 40 4.5 35 1.8 83 83 SSW 6 9 29.83 1010 10 16.0934 0 0
5:35 pm 17:35 Sunny 40 4.7 35 1.9 82 82 SSW 6 9 29.83 1010 10 16.0934 0 0
5:55 pm 17:55 Sunny 41 4.8 35 1.9 82 82 SSW 9 15 29.83 1010 10 16.0934 0 0
6:15 pm 18:15 Clear 41 5.1 35 1.8 79 79 SSW 9 15 29.83 1010 10 16.0934 0 0
6:35 pm 18:35 Clear 40 4.7 35 1.6 81 81 S 9 15 29.83 1010 10 16.0934 0 0
6:55 pm 18:55 Clear 42 5.5 35 1.6 76 76 S 9 15 29.83 1010 10 16.0934 0 0
7:15 pm 19:15 Clear 42 5.3 34 1.2 75 75 S 8 13 29.83 1010 10 16.0934 0 0
7:35 pm 19:35 Clear 42 5.3 34 1 74 74 S 7 11 29.83 1010 10 16.0934 0 0
7:55 pm 19:55 Clear 41 5.2 34 1 75 75 SSW 8 13 29.8 1009 10 16.0934 0 0
8:15 pm 20:15 Clear 41 5 34 1 76 76 SSW 8 13 29.8 1009 10 16.0934 0 0
8:35 pm 20:35 Clear 42 5.4 33 0.8 73 73 SSW 7 11 29.8 1009 10 16.0934 0 0
8:55 pm 20:55 Clear 40 4.7 33 0.5 74 74 S 5 7 29.8 1009 10 16.0934 0 0
9:15 pm 21:15 Clear 41 5 33 0.6 73 73 S 8 13 29.8 1009 10 16.0934 0 0
9:35 pm 21:35 Clear 41 5.2 33 0.5 72 72 S 7 11 29.8 1009 10 16.0934 0 0
9:55 pm 21:55 Clear 40 4.3 33 0.5 77 77 S 6 9 29.8 1009 10 16.0934 0 0
10:15 pm 22:15 Clear 41 4.8 33 0.5 74 74 S 6 9 29.77 1008 10 16.0934 0 0
10:35 pm 22:35 Clear 38 3.6 32 0.1 78 78 Calm 29.8 1009 10 16.0934 0 0
10:55 pm 22:55 Clear 38 3.6 33 0.4 80 80 NNW 3 6 29.8 1009 10 16.0934 0 0
11:15 pm 23:15 Clear 37 3 33 0.6 84 84 N 7 11 29.83 1010 10 16.0934 0 0
11:35 pm 23:35 Clear 37 2.8 33 0.7 86 86 N 6 9 29.83 1010 10 16.0934 0 0
11:55 pm 23:55 Clear 36 2.2 33 0.6 89 89 NNE 6 9 29.83 1010 10 16.0934 0 0

Powered by AerisWeather